Hourly Data Report for November 13, 2006

TORONTO CITY
ONTARIO

43°40'00.000" N
79°24'00.000" W
112.50 m
6158355
71508
XTO

Download Data

Hourly Data (November 2006)
Hourly Data Report for November 13, 2006
TIME
LST
Temp Definition
°C
Dew Point Definition
°C
Rel Hum Definition
%
Precip. Amount Definition
mm

Wind Dir Definition
10's deg

Wind Spd Definition
km/h
Visibility Definition
km
Stn Press Definition
kPa
Hmdx Definition


Wind Chill Definition


Weather Definition


00:00 4.6 1.1 78   LegendMM LegendMM   101.12     LegendNANA
01:00 4.5 1.3 80   LegendMM LegendMM   101.07     LegendNANA
02:00 4.4 1.4 81   LegendMM LegendMM   101.04     LegendNANA
03:00 4.2 1.4 82   LegendMM LegendMM   101.03     LegendNANA
04:00 4.0 1.8 86   LegendMM LegendMM   100.99     LegendNANA
05:00 4.0 2.0 87   LegendMM LegendMM   100.93     LegendNANA
06:00 4.0 2.0 87   LegendMM LegendMM   100.88     LegendNANA
07:00 4.0 2.1 87   LegendMM LegendMM   100.86     LegendNANA
08:00 3.8 2.4 91   LegendMM LegendMM   100.83     LegendNANA
09:00 4.0 3.0 93   LegendMM LegendMM   100.83     LegendNANA
10:00 4.5 3.5 93   LegendMM LegendMM   100.77     LegendNANA
11:00 4.9 3.9 93   LegendMM LegendMM   100.70     LegendNANA
12:00 5.4 4.0 91   LegendMM LegendMM   100.59     LegendNANA
13:00 5.2 4.3 94   LegendMM LegendMM   100.53     LegendNANA
14:00 5.3 4.4 94   LegendMM LegendMM   100.46     LegendNANA
15:00 5.6 4.4 92   LegendMM LegendMM   100.41     LegendNANA
16:00 5.4 4.2 92   LegendMM LegendMM   100.35     LegendNANA
17:00 5.3 4.6 95   LegendMM LegendMM   100.33     LegendNANA
18:00 5.3 4.9 97   LegendMM LegendMM   100.30     LegendNANA
19:00 5.5 5.2 98   LegendMM LegendMM   100.29     LegendNANA
20:00 5.7 5.6 99   LegendMM LegendMM   100.27     LegendNANA
21:00 5.7 5.6 99   LegendMM LegendMM   100.22     LegendNANA
22:00 5.9 5.9 100   LegendMM LegendMM   100.23     LegendNANA
23:00 6.1 6.0 99   LegendMM LegendMM   100.18     LegendNANA

Notes on Data Quality.

Legend

  • E = Estimated
  • M = Missing
  • NA = Not Available*
  • [empty] = Indicates an unobserved value
Date modified: